ANDOYA/ANDENES(AFB) current weather conditions

sailwx.info

Wind from 270 at 8 knots

Air temperature 6.0° C
Visibility: greater than 5.4 NM
Dewpoint 4.0° C

Last reported at 2020-May-29 20:50 UTC.
Time now 2020-May-29 22:11 UTC

Location: N 69°18' E 016°08'.
View on Google Maps.

See reports from other nearby stations

  
Tides and Currents Weather Stations Pressure Air Temp Water Temp Dewpoint Dewpoint Depression Visibility Wind Speed Wind Dir Waves Ship Positions
date/time (UTC)wind fromknots sea level pressurealtimeterstation pressurevisibilityair tempwater tempwave heightnotes
2020-May-29 20:50 270 8 5.4 6.0
2020-May-29 20:20 280 6 5.4 6.0
2020-May-29 19:50 260 9 5.4 7.0
2020-May-29 19:20 260 9 5.4 7.0
2020-May-29 18:50 280 9 5.4 7.0
2020-May-29 18:20 280 9 5.4 7.0
2020-May-29 17:50 290 11 5.4 7.0
2020-May-29 17:20 280 11 5.4 7.0
2020-May-29 16:50 280 11 5.4 7.0
2020-May-29 16:20 270 9 5.4 7.0
2020-May-29 15:50 260 12 5.4 8.0
2020-May-29 15:20 270 11 5.4 8.0
2020-May-29 14:50 260 13 5.4 8.0
2020-May-29 14:20 260 12 5.4 8.0
2020-May-29 13:50 270 12 5.4 7.0
2020-May-29 13:20 270 13 1.4 8.0 Mist.
2020-May-29 12:50 260 14 5.4 8.0
2020-May-29 12:20 260 13 5.4 7.0
2020-May-29 11:50 270 13 3.2 7.0
2020-May-29 11:20 270 13 5.4 7.0
2020-May-29 10:50 260 17 5.4 7.0
2020-May-29 10:20 260 19 4.9 7.0
2020-May-29 09:50 260 21 5.4 7.0
2020-May-29 09:20 260 20 2.4 7.0 Light drizzle.
2020-May-29 08:50 250 18 2.3 7.0 Light drizzle.
2020-May-29 08:20 260 13 3.8 7.0 Light drizzle.
2020-May-29 07:50 240 19 2.7 7.0
2020-May-29 07:20 240 13 5.4 7.0 Light rain.
2020-May-29 06:50 240 18 5.4 7.0 Drizzle.
2020-May-29 06:20 240 13 5.4 7.0 Drizzle.
2020-May-29 05:50 240 14 5.4 7.0 Drizzle.
2020-May-29 05:20 260 18 5.4 7.0 Drizzle.
2020-May-29 04:50 260 18 4.9 7.0 Drizzle.
2020-May-29 04:20 260 18 5.4 7.0 Drizzle.
2020-May-29 03:50 250 18 5.4 7.0 Light rain.
2020-May-29 03:20 260 18 5.4 7.0 Drizzle.
2020-May-29 02:50 260 15 5.4 7.0 Drizzle.
2020-May-29 02:20 250 12 5.4 7.0 Drizzle.
2020-May-29 01:50 240 12 5.4 7.0 Drizzle.
2020-May-29 01:20 210 8 5.4 6.0 Drizzle.
2020-May-29 00:50 190 7 5.4 6.0 Drizzle.
2020-May-29 00:20 190 6 5.4 6.0 Drizzle.
2020-May-28 23:50 190 8 5.4 6.0 Drizzle.
2020-May-28 23:20 190 9 5.4 6.0 Precipitation.
2020-May-28 22:50 210 11 5.4 6.0 Drizzle.
2020-May-28 22:20 210 8 5.4 6.0 Drizzle.
2020-May-28 21:50 210 12 5.4 6.0 Drizzle.
2020-May-28 21:20 220 11 5.4 6.0 Light rain.
2020-May-28 20:50 230 13 5.4 6.0 Drizzle.
2020-May-28 20:20 230 11 4.3 6.0 Drizzle.
2020-May-28 19:50 240 14 4.9 6.0 Drizzle.
2020-May-28 19:20 230 13 5.4 6.0 Drizzle.
2020-May-28 18:50 240 14 5.4 6.0 Drizzle.
2020-May-28 18:20 240 15 5.4 6.0 Drizzle.
2020-May-28 17:50 250 15 4.3 7.0 Drizzle.
2020-May-28 17:20 250 17 5.4 7.0 Light drizzle.
2020-May-28 16:50 250 17 5.4 7.0
2020-May-28 16:20 250 19 gusting 31 5.4 7.0
2020-May-28 15:50 250 18 5.4 7.0
2020-May-28 15:20 240 17 5.4 7.0
2020-May-28 14:50 240 18 gusting 29 5.4 7.0
2020-May-28 14:20 240 18 5.4 7.0 Light drizzle.
2020-May-28 13:50 240 14 5.4 7.0 Light drizzle.
2020-May-28 13:20 240 13 5.4 7.0 Light drizzle.
2020-May-28 12:50 240 17 5.4 7.0 Light drizzle.
2020-May-28 12:20 250 14 4.9 7.0 Drizzle.
2020-May-28 11:50 250 13 5.4 8.0
2020-May-28 11:20 240 13 5.4 8.0
2020-May-28 10:50 250 13 5.4 8.0
2020-May-28 10:20 250 14 5.4 7.0
2020-May-28 09:50 250 14 5.4 7.0 Light rain.
2020-May-28 09:20 260 13 5.4 7.0 Light rain.
2020-May-28 08:50 250 13 gusting 26 5.4 7.0
2020-May-28 08:20 250 12 gusting 22 5.4 7.0
2020-May-28 07:50 250 13 5.4 7.0
2020-May-28 07:20 240 9 5.4 6.0
2020-May-28 06:50 230 13 5.4 6.0 Light rain.
2020-May-28 06:20 240 13 5.4 6.0 Light rain.
2020-May-28 05:50 210 8 5.4 5.0
2020-May-28 05:20 190 8 4.9 4.0 Light rain.
2020-May-28 04:50 230 17 5.4 5.0 Light rain.
2020-May-28 04:20 220 18 5.4 5.0 Drizzle.
2020-May-28 03:50 220 21 5.4 5.0 Light drizzle.
2020-May-28 03:20 230 17 gusting 27 5.4 5.0 Drizzle.
2020-May-28 02:50 240 20 5.4 5.0 Drizzle.
2020-May-28 02:20 250 21 gusting 35 5.4 6.0 Light rain.
2020-May-28 01:50 250 24 gusting 36 5.4 6.0 Drizzle.
2020-May-28 01:20 250 25 gusting 41 5.4 6.0
2020-May-28 00:50 260 21 gusting 36 5.4 6.0
2020-May-28 00:20 240 22 gusting 41 5.4 6.0 Light rain.
2020-May-27 23:50 250 20 gusting 39 4.9 5.0 Light rain.
2020-May-27 23:20 250 20 gusting 32 5.4 6.0
2020-May-27 22:50 240 22 gusting 34 5.4 6.0
2020-May-27 22:20 240 18 5.4 6.0